Theta_e
316 317 323 325 325 322 323 322 325 327 327 329 330 334 337 336 339 340 334 333 326 322 334 337 335 326 326 335 336 335 334 333 333 331 331 329 329 328 328 328 328 327 327 327 327 327 327 325 324
316 316 325 320 328 327 325 321 326 324 325 335 333 337 338 340 336 335 333 333 327 320 334 336 335 326 325 332 334 334 333 330 329 329 329 328 328 328 327 327 327 326 326 327 326 326 325 320 318
315 317 323 327 327 330 325 321 322 323 326 331 336 335 338 339 334 334 335 332 327 322 334 335 334 327 330 331 332 333 334 331 329 329 328 328 328 328 327 327 326 326 326 327 327 326 320 317 314
314 316 315 327 329 326 323 323 321 323 327 327 334 340 335 335 334 336 334 332 325 325 334 335 333 326 330 332 333 334 332 330 329 328 328 328 328 328 327 327 326 327 326 326 325 320 314 313 314
312 313 321 323 325 325 323 323 323 324 327 330 334 337 339 334 335 335 333 331 326 323 333 333 331 328 331 332 334 334 330 328 329 328 327 327 327 326 327 327 327 326 325 324 319 315 315 316 316
313 312 321 327 325 323 321 320 322 322 323 326 334 337 337 330 333 332 333 331 325 325 328 329 329 328 331 331 334 332 327 324 327 328 327 327 326 326 327 326 326 324 323 320 317 316 316 317 317
314 314 323 322 325 326 323 319 322 323 325 328 333 339 334 327 331 333 333 330 328 327 326 329 327 330 331 333 333 328 322 322 326 327 326 325 327 327 325 323 321 323 321 319 318 317 317 317 317
313 316 319 321 325 327 323 321 321 322 324 330 332 337 337 328 329 332 332 331 330 333 332 332 329 331 333 333 329 324 321 321 324 325 324 326 327 326 325 324 323 323 321 319 318 318 318 318 318
315 322 324 324 322 323 321 324 321 321 326 330 330 333 332 329 329 332 332 331 330 331 332 330 334 333 333 330 326 324 321 321 322 323 322 325 327 326 324 324 323 320 319 319 320 318 317 318 320
316 318 322 320 319 320 321 322 322 324 330 333 335 332 325 327 328 330 330 329 329 330 330 330 332 336 332 329 328 325 322 322 323 323 322 320 320 320 320 320 319 319 319 321 321 320 318 320 322
313 318 318 318 319 320 319 320 323 322 327 328 333 331 322 327 329 329 330 329 329 330 329 330 330 333 331 331 329 327 323 323 324 324 323 322 322 321 320 322 324 323 324 324 322 323 322 323 324
315 311 314 318 318 320 320 320 322 321 322 323 324 328 323 328 328 328 328 328 329 330 330 329 331 334 332 330 330 328 324 322 324 324 324 322 321 321 321 323 325 326 325 324 323 324 325 325 325
315 314 314 315 317 322 321 320 323 321 318 325 330 328 324 327 329 329 328 328 329 330 330 330 330 333 332 330 330 328 325 323 324 323 321 320 321 321 322 325 326 326 326 325 325 326 326 326 326
313 314 315 315 319 322 324 321 323 322 324 332 332 331 325 324 326 328 330 330 330 329 328 330 331 334 333 331 330 329 327 322 324 324 323 322 322 323 325 326 326 326 326 325 326 326 327 327 326
313 315 314 314 318 321 322 325 324 316 329 334 334 332 328 323 321 327 330 331 330 329 329 330 330 334 332 331 331 329 328 324 324 325 326 324 325 327 327 327 328 327 327 326 326 327 327 327 327
313 315 315 312 318 319 317 324 321 320 318 334 335 331 330 328 322 322 330 331 331 330 330 331 330 334 332 331 331 330 329 325 327 327 327 325 328 328 328 328 328 328 328 327 327 327 327 327 327
312 318 315 314 320 321 318 323 322 317 312 325 333 331 330 329 328 323 324 330 331 332 332 333 333 332 332 332 331 330 327 328 329 328 328 327 327 329 329 328 328 328 327 327 327 327 327 327 327
313 315 317 315 320 319 321 321 322 319 313 322 330 331 330 329 330 329 323 325 328 330 331 331 331 332 332 332 330 329 328 330 330 329 329 329 329 329 328 328 327 327 327 327 327 327 326 327 328
316 319 318 315 320 319 318 319 323 320 316 308 312 323 329 329 327 329 331 324 324 327 329 331 331 331 331 331 330 329 331 332 332 331 330 328 329 328 328 327 328 328 329 328 329 328 327 328 328
312 315 317 319 322 323 326 326 322 320 316 306 307 309 313 319 319 322 329 331 328 324 325 327 330 331 331 330 330 330 331 330 331 332 330 330 327 327 328 328 329 329 330 330 330 329 329 328 329
312 314 315 322 321 318 323 320 317 316 316 312 308 306 308 313 314 320 323 323 328 327 324 323 325 327 329 330 330 328 327 326 326 326 326 327 329 329 330 331 331 331 331 332 332 331 330 328 329
319 315 314 318 322 326 315 323 314 314 314 314 311 306 307 308 312 312 315 315 315 319 323 326 325 324 325 325 325 326 327 327 327 327 327 329 330 331 330 330 331 332 332 332 331 330 329 329 328
317 313 316 316 318 320 318 320 317 313 314 313 313 307 306 307 308 311 310 311 311 314 316 319 321 327 328 328 327 326 326 327 328 329 330 331 331 331 331 330 331 332 331 330 327 327 327 326 326
313 314 314 315 316 317 319 319 317 318 315 312 309 309 307 307 307 306 308 309 308 311 312 314 318 317 324 326 328 328 329 330 329 330 329 329 327 326 327 327 327 327 327 327 326 324 323 323 325
312 313 313 314 311 320 316 316 317 312 310 309 307 308 307 305 307 306 306 306 308 308 308 309 311 310 314 317 318 322 326 326 327 324 325 324 323 320 321 321 321 322 322 322 322 322 320 323 323
311 312 315 315 316 318 310 315 314 310 310 310 308 307 307 306 304 305 305 306 306 306 307 308 308 309 309 310 310 311 312 314 317 318 318 316 315 315 315 316 317 317 317 317 318 319 320 319 319
310 312 311 312 306 312 309 308 308 311 308 305 306 307 308 307 306 304 305 306 305 305 305 306 307 307 308 309 309 310 310 311 311 311 312 312 313 314 315 316 316 316 315 316 316 316 316 316 316
308 308 310 307 309 312 313 307 309 307 306 305 304 303 302 302 303 304 305 305 305 305 304 305 305 305 305 307 308 308 309 310 311 312 312 312 312 313 313 313 314 314 314 314 314 315 314 314 312
308 308 308 308 309 311 313 309 303 306 305 303 303 303 302 301 301 301 302 302 303 304 304 304 304 304 303 303 303 304 306 308 309 309 309 310 310 310 311 311 312 312 312 311 311 310 309 308 307
308 310 307 305 308 308 309 309 305 305 304 302 302 302 299 298 298 298 299 299 300 301 303 303 303 303 303 303 303 302 302 304 305 307 307 307 307 307 307 307 307 307 306 306 306 305 304 303 302
Wind_Speed
15 9 1 4 3 4 3 6 3 4 3 1 4 5 9 2 5 4 1 17 35 36 34 31 27 24 24 21 20 19 16 14 13 12 12 11 11 11 11 11 11 10 10 9 9 8 7 7 7
13 5 1 2 4 1 5 4 7 9 3 4 3 4 2 4 2 5 12 15 36 39 35 32 28 26 24 22 18 17 15 13 12 10 11 11 11 11 11 10 9 9 7 7 7 6 6 6 5
7 2 3 4 4 9 5 6 10 4 3 4 3 2 6 3 2 13 5 26 37 39 35 34 29 26 24 23 19 17 14 13 11 11 11 12 11 11 10 10 8 7 7 5 4 4 3 3 3
4 3 3 3 9 7 9 4 4 5 3 4 0 2 2 1 8 13 19 34 39 39 36 32 29 26 26 23 21 19 15 13 12 12 12 12 11 11 10 9 8 7 6 4 3 2 2 3 4
1 2 2 5 9 5 7 6 3 6 4 2 1 4 2 2 6 15 30 37 38 39 37 32 28 26 25 24 22 19 14 12 13 13 13 12 11 10 9 8 7 6 5 3 2 1 2 4 4
1 2 2 12 9 5 7 8 5 5 5 3 2 4 2 2 17 23 31 34 35 37 37 33 29 26 25 24 22 18 14 12 13 14 13 11 8 9 8 8 6 5 3 2 1 2 4 4 5
2 2 9 5 8 17 6 8 7 7 4 7 4 8 1 3 16 28 30 32 31 29 35 32 30 28 25 24 22 18 15 13 14 14 13 11 11 9 7 8 6 4 2 3 2 3 5 6 6
2 2 4 11 9 26 3 5 4 7 6 2 7 6 5 6 22 27 28 30 23 24 27 28 30 29 27 24 21 18 15 15 15 14 13 12 13 10 8 7 6 5 4 4 4 5 5 6 7
2 4 18 23 7 6 2 5 3 2 6 2 4 3 4 29 29 27 23 22 22 25 26 26 29 31 28 25 21 18 16 15 14 13 12 14 14 12 10 9 8 7 6 6 6 6 7 8 8
4 6 19 1 4 6 14 5 3 4 4 3 3 4 18 29 29 26 26 24 25 28 28 27 28 29 29 26 23 19 17 16 15 14 13 12 13 12 11 9 8 8 7 7 8 8 9 8 8
4 15 12 11 7 7 6 8 3 3 3 6 10 9 12 20 21 20 22 25 26 27 27 27 26 24 29 27 24 21 19 17 16 15 14 13 12 11 11 10 8 8 8 9 8 7 8 8 8
6 10 7 5 11 7 8 11 5 6 8 5 8 11 15 18 17 22 23 26 29 29 27 26 26 28 31 28 27 23 21 19 18 17 15 15 14 13 13 13 10 11 9 9 8 8 7 8 8
7 12 7 9 9 9 10 10 8 6 9 7 8 15 16 17 17 18 19 21 23 24 24 29 28 28 32 30 28 24 22 20 17 16 15 15 15 14 13 12 11 10 10 10 9 9 9 10 10
5 9 7 9 7 4 6 12 7 3 7 5 10 15 16 15 16 17 22 22 26 23 24 28 29 25 27 31 28 25 22 19 18 17 15 15 15 14 14 13 12 11 11 11 11 12 12 12 11
7 14 10 11 11 10 3 11 2 7 6 7 9 9 10 10 16 19 22 22 24 23 22 25 28 27 31 30 27 24 21 19 19 19 17 17 17 16 15 15 14 13 12 12 12 12 13 13 12
9 7 7 8 13 7 15 11 1 12 11 5 4 4 7 7 12 18 23 24 21 21 22 22 25 28 31 29 27 24 22 20 19 18 17 18 17 17 17 18 17 14 14 14 14 13 14 14 13
5 6 13 7 13 6 14 12 3 14 16 7 5 4 5 6 7 17 24 27 29 28 28 26 25 29 31 28 26 24 22 21 20 19 19 18 19 18 19 18 16 16 16 16 15 15 15 15 14
5 7 7 11 9 9 14 14 4 15 18 10 5 2 5 2 2 7 16 23 25 27 26 27 26 28 29 28 25 23 23 22 22 21 20 19 19 19 19 18 17 17 17 16 16 16 15 15 17
9 9 8 10 6 11 15 11 6 15 15 16 13 7 4 5 4 6 11 16 20 23 25 25 26 27 27 27 25 23 24 24 24 23 21 18 18 17 18 19 16 15 16 16 16 16 16 17 17
6 6 9 9 8 3 10 11 9 12 5 10 10 11 8 5 6 9 6 11 14 21 22 23 25 27 27 27 27 26 23 25 30 26 26 22 19 18 18 18 18 18 18 18 18 17 18 18 17
3 6 6 4 11 7 3 3 6 5 7 11 16 12 10 10 12 10 13 14 7 5 10 14 17 21 22 23 23 18 20 17 16 19 19 19 18 17 17 19 19 19 18 20 18 18 19 16 16
6 14 8 6 2 3 3 2 4 6 10 12 15 16 13 13 6 9 12 17 17 15 11 5 8 13 15 15 17 18 16 16 18 18 18 18 15 15 15 15 15 16 16 15 15 15 14 14 12
4 13 3 5 5 3 7 3 3 3 7 9 14 13 11 6 8 8 9 14 17 19 15 11 5 7 5 7 9 12 16 19 18 20 21 15 14 13 12 13 13 13 11 10 9 9 9 9 9
5 5 1 2 2 4 6 2 3 3 5 2 10 17 13 9 6 7 6 14 16 18 14 12 11 8 3 3 1 6 10 17 19 19 13 10 9 6 7 7 7 6 7 7 8 10 9 7 6
6 4 3 5 5 3 8 4 4 5 5 3 3 4 11 9 9 7 6 14 13 15 13 11 10 9 4 4 6 7 10 13 14 12 11 12 9 7 6 7 7 7 7 7 7 5 6 5 2
4 3 2 1 3 2 7 6 3 2 1 3 3 3 7 11 8 8 10 12 12 10 9 5 2 3 6 4 3 3 6 6 7 7 8 7 6 4 4 4 3 2 2 3 1 2 2 2 1
5 4 2 4 1 3 3 2 1 3 1 4 3 3 5 7 8 8 12 13 11 9 10 8 9 8 8 4 3 2 2 1 2 3 3 4 4 3 3 3 4 2 1 2 2 1 1 2 1
4 1 3 3 3 2 3 3 3 6 5 6 7 7 7 5 4 6 7 11 10 10 10 10 10 7 6 5 5 4 4 3 3 2 1 3 3 4 4 5 5 4 4 4 3 3 4 3 4
5 3 4 4 2 2 3 2 3 4 5 6 6 7 7 7 7 6 9 13 15 14 12 11 9 7 5 4 5 5 4 3 4 3 3 3 4 4 3 3 3 4 4 3 3 4 4 4 5
1 2 1 3 2 2 2 2 2 4 5 6 6 6 6 6 6 8 13 18 22 25 23 18 14 11 9 7 7 7 5 4 4 3 4 4 3 4 4 3 3 3 4 3 3 4 5 6 8
Wind_Direction
332 338 174 59 51 57 253 250 279 270 269 245 125 144 188 155 171 209 263 159 163 164 164 163 164 159 157 159 157 158 151 147 142 142 133 132 129 128 124 125 123 110 104 100 100 99 94 88 86
325 317 43 92 118 197 263 244 244 239 230 135 89 109 131 195 113 118 137 171 166 163 164 166 167 162 163 165 164 161 155 153 151 149 140 135 134 133 133 127 126 118 110 103 97 92 87 89 82
317 267 100 155 170 215 222 226 235 291 282 228 120 354 155 199 132 161 214 166 165 165 165 166 169 165 165 171 174 170 166 158 156 146 143 140 138 140 139 135 131 127 121 116 103 90 81 72 59
330 16 29 169 216 236 204 220 221 320 0 252 131 181 323 263 168 176 164 165 165 167 166 167 170 170 171 176 174 171 171 162 154 149 146 145 146 146 142 143 141 140 135 128 116 94 57 35 18
40 65 219 234 235 241 228 216 236 283 302 253 188 230 237 34 158 164 161 166 169 168 169 169 174 175 176 176 174 175 176 169 157 153 151 152 152 153 152 153 153 150 148 145 148 52 17 8 4
12 108 206 234 233 242 237 198 175 229 239 248 220 151 209 162 150 158 162 166 170 168 172 171 176 179 181 180 179 180 182 178 166 158 160 166 161 158 162 166 164 158 173 190 247 324 337 343 346
122 142 233 238 232 245 217 159 180 206 229 238 149 156 270 190 166 161 165 168 168 167 172 174 175 180 182 180 182 184 182 180 173 170 175 169 175 172 180 178 177 196 218 231 274 312 326 330 331
161 253 245 226 219 247 192 177 173 159 242 77 136 198 214 190 163 160 163 162 161 166 166 174 177 180 180 183 186 185 184 182 181 184 184 175 170 176 179 198 211 240 247 260 285 302 312 315 316
263 251 243 237 213 230 62 201 211 160 134 171 209 160 312 157 158 149 152 162 170 171 169 174 180 182 183 183 185 187 189 188 191 191 190 192 190 199 211 225 241 250 255 267 284 296 301 304 311
208 237 246 6 259 275 263 255 257 175 137 218 218 64 134 149 155 160 167 175 180 177 175 179 178 181 185 184 184 189 192 193 196 197 197 198 206 216 222 231 240 246 254 266 280 286 292 298 303
241 247 285 305 313 333 277 276 258 197 228 203 206 163 157 162 165 170 176 180 182 180 177 179 182 183 188 188 188 192 196 198 201 205 207 210 214 219 223 227 232 243 257 272 281 292 295 298 304
276 262 265 281 295 327 320 319 245 212 232 257 210 155 159 172 176 178 180 177 180 184 184 185 182 184 192 195 195 198 201 203 206 209 212 214 219 224 229 233 238 250 260 269 271 285 297 297 299
238 272 279 277 278 304 323 294 267 270 280 286 143 154 186 184 176 178 175 172 175 188 188 191 191 190 193 199 202 200 205 212 214 214 217 218 222 228 233 239 250 248 261 271 275 281 286 290 294
307 298 286 273 267 252 324 299 305 342 337 229 170 179 180 184 177 162 170 176 176 188 197 196 200 196 196 201 206 208 210 215 222 225 226 228 232 235 240 244 254 256 268 275 278 284 285 289 293
278 269 275 251 234 236 339 284 171 326 321 261 208 182 177 173 169 180 176 176 183 189 194 196 201 199 206 208 210 214 220 225 227 232 237 237 237 240 247 254 261 267 275 277 278 281 282 288 291
296 256 263 226 213 214 148 266 239 11 360 284 261 238 166 173 173 178 177 179 187 187 191 197 198 204 209 212 215 221 226 231 234 237 242 240 244 250 255 258 262 269 272 272 274 277 278 284 287
216 273 245 288 196 164 170 243 313 23 3 309 268 245 197 150 163 180 192 194 199 202 200 203 204 212 212 216 219 227 230 230 235 240 244 248 251 256 257 260 264 267 268 267 270 273 276 283 282
238 253 244 228 196 194 171 215 320 39 15 357 297 3 263 233 121 170 194 202 210 211 210 209 210 212 214 217 221 226 230 236 239 240 243 249 254 255 255 262 268 269 269 270 272 272 274 277 280
279 283 275 296 241 172 193 190 43 46 9 13 25 315 35 36 2 171 188 197 205 211 213 213 211 215 215 216 219 225 230 236 240 240 243 250 251 254 258 264 268 273 273 276 276 272 274 277 276
343 287 279 235 167 129 139 149 73 66 351 350 39 16 356 8 10 22 167 185 195 209 214 217 222 221 220 222 224 228 238 248 246 249 251 253 255 259 261 263 264 264 267 268 269 266 265 266 269
319 353 318 88 103 50 90 41 49 33 61 341 17 24 14 26 26 19 45 53 96 123 211 222 225 232 228 229 231 235 237 242 248 245 246 247 257 259 262 266 269 273 271 270 271 270 266 254 271
349 353 348 14 62 119 317 116 47 10 54 349 0 4 15 3 25 29 37 46 40 49 72 139 220 233 237 238 240 239 240 243 250 255 252 247 244 252 258 265 269 273 273 278 284 290 285 276 256
330 326 2 46 62 97 358 84 0 58 76 28 348 336 19 273 37 37 36 53 51 47 38 46 69 167 200 225 237 248 254 258 264 264 263 242 233 238 254 269 266 267 270 270 280 291 289 284 282
297 351 300 80 102 51 354 5 13 43 69 74 0 348 341 354 38 49 10 65 46 42 25 18 359 350 79 109 328 263 263 269 263 260 268 254 240 243 263 270 270 262 265 270 273 277 289 293 276
9 2 344 13 28 42 342 36 14 358 358 13 7 337 337 358 14 26 12 64 54 42 22 8 359 347 306 309 283 262 259 260 257 257 244 245 251 247 259 271 273 275 279 280 268 258 268 269 236
358 39 79 52 14 355 9 10 43 72 198 38 15 356 359 16 10 4 11 42 68 87 70 58 3 3 18 17 297 292 262 251 255 258 251 252 249 239 244 250 254 265 299 295 274 235 195 178 172
328 51 188 113 18 52 349 283 202 167 32 50 51 43 42 25 6 12 22 17 24 53 69 64 46 28 29 16 2 343 316 289 248 232 234 228 212 205 197 204 199 155 96 92 76 135 229 234 183
82 216 43 9 70 65 360 30 29 30 39 42 32 26 30 41 26 28 24 32 28 31 30 52 59 51 33 33 32 32 35 45 62 80 138 166 147 148 162 157 146 129 121 114 125 116 111 122 122
345 18 49 114 100 140 127 325 304 54 40 42 30 31 26 25 22 26 32 40 47 47 44 51 50 51 48 33 48 36 25 42 64 83 103 104 121 120 117 115 119 134 128 135 145 139 127 119 115
233 1 22 99 274 66 96 279 37 52 69 73 37 26 27 34 20 18 20 27 32 35 35 30 25 25 24 26 28 29 25 30 47 57 56 56 67 87 87 92 105 99 105 109 107 110 109 106 102